Regional Weather Roundup
Issued by NWS

Home | Current Version | Previous Version | Graphics & Text | Print | Product List | Glossary On
Versions: 1 2 3 4 5 6 7 8 9 10 11 12 13 14 15 16 17 18 19 20 21 22 23 24 25 26 27 28 29 30 31 32 33 34 35 36 37 38 39 40 41 42 43 44 45 46 47 48 49 50
000
ASUS43 KTOP 160508
RWRKS

WEATHER ROUNDUP FOR KANSAS
NATIONAL WEATHER SERVICE GOODLAND KS
1200 AM CDT TUE SEP 16 2014

NOTE:  "FAIR" INDICATES FEW OR NO CLOUDS BELOW 12,000 FEET WITH NO
SIGNIFICANT WEATHER AND/OR OBSTRUCTIONS TO VISIBILITY.

KSZ001>006-013>018-027>032-041>047-160600-
NORTHWEST KANSAS

CITY           SKY/WX    TMP DP  RH WIND       PRES   REMARKS
GOODLAND       CLEAR     53  50  89 S10       30.29S
HILL CITY      CLEAR     48  43  82 CALM      30.28R
RUSSELL        CLEAR     53  47  79 NE7       30.25S
$$

KSZ061>065-074>080-084>089-160600-
SOUTHWEST KANSAS

CITY           SKY/WX    TMP DP  RH WIND       PRES   REMARKS
DODGE CITY     CLOUDY    61  54  77 CALM      30.27S
ELKHART          N/A     59  56  90 NW1         N/A
GARDEN CITY    CLOUDY    61  55  81 SE3       30.28R
GREAT BEND     CLEAR     57  50  77 E6        30.26R
LIBERAL        CLOUDY    63  54  72 E7        30.30S
PRATT          CLEAR     59  54  82 CALM      30.25S
$$

KSZ066>073-081>083-090>101-160600-
SOUTHEAST KANSAS

CITY           SKY/WX    TMP DP  RH WIND       PRES   REMARKS
CHANUTE        CLOUDY    65  57  75 N10       30.21R
COFFEYVILLE    CLOUDY    68  63  84 NE9       30.18S
HUTCHINSON     CLOUDY    64  53  67 NE9       30.24R
MEDICINE LODGE   N/A     65  58  78 NE6       30.22R
NEWTON         CLOUDY    61  48  63 E7        30.26R
PARSONS        CLOUDY    68  61  78 VRB5      30.20S
WICHITA INTL   MOCLDY    66  56  70 NE10      30.22R
WICHITA JABRA  CLOUDY    62  55  77 NE10      30.22R
WICHITA MCCONL PTCLDY    65  58  76 E10       30.22R
WINFIELD       CLOUDY    68  59  73 E10       30.21R
$$

KSZ007>012-019>026-033>040-048>060-102>105-160600-
NORTHEAST KANSAS

CITY           SKY/WX    TMP DP  RH WIND       PRES   REMARKS
CONCORDIA      CLEAR     50  46  86 CALM      30.27R
EMPORIA        CLOUDY    57  52  83 NE7       30.24R
LAWRENCE       CLEAR     48  46  93 N5        30.25S
MANHATTAN      CLEAR     53  49  86 NE6       30.26R
MARYSVILLE     CLEAR     50  45  81 E3        30.27R
OLATHE IND     CLEAR     51  49  92 N3        30.25S
OLATHE EXE     CLEAR     54  50  86 NE6       30.24R
SALINA         CLEAR     59  50  72 E8        30.26R
TOPEKA BILLARD CLEAR     53  51  93 N6        30.26R
TOPEKA FORBES  CLEAR     50  48  93 N7        30.25S
$$


USA.gov is the U.S. government's official web portal to all federal, state and local government web resources and services.